Tracking 22283 objects as of 28-Jan-2021
HD Live streaming from Space Station
objects crossing your sky now

USA 294

Track USA 294 now!
10-day predictions
USA 294 is classified as:


NORAD ID: 45110
Int'l Code: 2020-007A
Perigee: 584.2 km
Apogee: 598.0 km
Inclination: 70.0 °
Period: 96.4 minutes
Semi major axis: 6962 km
RCS: Unknown
Launch date: January 31, 2020
Source: United States (US)
Launch site: Rocket Lab Launch Complex (RLLC)

USA 294 (NROL-151) is a classified satellite launched by Rocket Lab for the U.S. National Reconnaissance Office.
aabbcc
Your satellite tracking list
Your tracking list is empty




NASA's NSSDC Master Catalog

Two Line Element Set (TLE):
1 45110U 20007A   21022.76610387 0.00001500  00000-0  13850-3 0    04
2 45110  69.9930 339.9413 0009935 196.5134 163.4865 14.94489699    02
Source of the keplerian elements: McCants